User: anonymous   Login
Location: Betra
(48.4113°N, 8.6634°E)
Time: 00:08:18
(UTC+00:00)
Language:

RESURS DK-1 - Orbit

View from above orbital plane
View from above orbital plane
View from above satellite
View from above satellite

Ground track
Ground track

The orbit data is extracted from the following two-line orbital elements,

1 29228U 06021A   24204.52148341  .00005144  00000-0  34381-3 0  9998
2 29228  69.9375 331.1077 0006765 297.9406  62.1072 15.07579804997646
Epoch (UTC): 22 July 2024 12:30:56
Eccentricity: 0.0006765
inclination: 69.9375°
perigee height: 539 km
apogee height: 548 km
right ascension of ascending node: 331.1077°
argument of perigee: 297.9406°
revolutions per day: 15.07579804
mean anomaly at epoch: 62.1072°
orbit number at epoch: 99764

The dashed part of the orbit path shows where the satellite is in the earth's shadow,  

DLR